Regional Weather Roundup
Issued by NWS Upton, NY

Current Version | Previous Version | Text Only | Print | Product List | Glossary On
Versions: 1 2 3 4 5 6 7 8 9 10 11 12 13 14 15 16 17 18 19 20 21 22 23 24 25 26 27
000 ASUS41 KOKX 282009 RWROKX REGIONAL WEATHER ROUNDUP NATIONAL WEATHER SERVICE NEW YORK NY 400 PM EDT WED JUN 28 2017 NOTE: "FAIR" INDICATES FEW OR NO CLOUDS BELOW 12,000 FEET WITH NO SIGNIFICANT WEATHER AND/OR OBSTRUCTIONS TO VISIBILITY. NYZ071-072-176-178-NJZ106-104-282100- NEW YORK CITY METRO AREA CITY SKY/WX TMP DP RH WIND PRES REMARKS Central Park MOSUNNY 76 49 38 CALM 30.12S Bronx Bot Gard N/A 79 43 27 SW7 30.09S LaGuardia APRT MOSUNNY 79 49 34 NW14G20 30.09S Kennedy INTL MOSUNNY 80 49 33 W5 30.10S Breezy Point N/A 73 N/A N/A W7 N/A Newark/Liberty PTSUNNY 80 47 31 NW10G21 30.09S Teterboro MOSUNNY 79 48 33 NW12G20 30.08F $$ NYZ177-179-078>081-282100- LONG ISLAND NEW YORK CITY SKY/WX TMP DP RH WIND PRES REMARKS Jones Beach N/A 72 N/A N/A SW9G16 N/A Matinecock PT N/A N/A N/A N/A W7 N/A Farmingdale NOT AVBL MacArthur/ISP MOSUNNY 77 48 35 W7G18 30.08F Shirley SUNNY 78 50 37 W12 30.09F Mt Sinai Harb N/A N/A N/A N/A W7 N/A Westhampton SUNNY 77 45 32 W12G21 30.11F East Hampton FAIR 75 48 37 W9 30.08F Montauk N/A 74 58 57 VRB5 30.09F $$ NYZ052-065-067-282100- HUDSON VALLEY CITY SKY/WX TMP DP RH WIND PRES REMARKS White Plains MOSUNNY 77 48 35 NW14G20 30.08F Larchmont Harb N/A 75 N/A N/A W12G17 N/A Croton O-T Hud N/A 77 N/A N/A NW13 N/A Newburgh MOSUNNY 77 50 38 W12 30.09F Montgomery MOSUNNY 78 45 30 NW9G18 30.07F Poughkeepsie SUNNY 78 47 33 W12 30.05F Albany MOSUNNY 76 48 37 W16G25 30.05F $$ NJZ001-105-106-008-010-013-015-019>022-104-282100- NEW JERSEY CITY SKY/WX TMP DP RH WIND PRES REMARKS Newark/Liberty PTSUNNY 80 47 31 NW10G21 30.09S Teterboro MOSUNNY 79 48 33 NW12G20 30.08F Caldwell SUNNY 80 47 31 VRB7 30.10F Somerville SUNNY 80 52 37 VRB5 30.08F Linden MOCLDY 79 47 32 NW3G17 30.09S Perth Amboy N/A 75 N/A N/A W6 N/A Sussex SUNNY 77 49 37 NW6 30.09F Andover N/A 76 48 37 VRB5 30.11S Trenton MOSUNNY 78 50 37 W9 30.11S Millville SUNNY 80 51 36 VRB3 30.15S Atlantic City SUNNY 80 47 31 NW14 30.13F Wrightstown NOT AVBL Toms River MOSUNNY 77 48 35 NW7 30.13S Belmar MOSUNNY 79 49 34 NW14G21 30.13S $$ PAZ047>061-062-071-282100- EASTERN PENNSYLVANIA CITY SKY/WX TMP DP RH WIND PRES REMARKS Philadelphia MOSUNNY 78 46 32 VRB5 30.14S Allentown PTSUNNY 78 50 37 NW10G20 30.12S Scranton MOSUNNY 76 50 40 SW9 30.11F $$ CTZ002-004>006-009-010-012-RIZ004-006-007-MAZ004-011-015-282100- SOUTHERN NEW ENGLAND IN CT CITY SKY/WX TMP DP RH WIND PRES REMARKS Bradley INTL MOSUNNY 78 48 34 W8G18 30.05F Hartford MOSUNNY 77 48 35 W7 30.05F Danbury NOT AVBL Wtrbury/Oxford MOSUNNY 73 48 40 W6 30.09F Bridgeport MOSUNNY 81 49 32 W12 30.07F Meriden SUNNY 76 50 40 VRB3 30.06F New Haven MOSUNNY 76 49 38 NW7 30.07F Chester FAIR 77 46 33 NW9G17 30.07F Groton MOSUNNY 72 57 59 SW10 30.05F Wilimantic MOSUNNY 78 48 34 NW9 30.05F IN RI CITY SKY/WX TMP DP RH WIND PRES REMARKS Providence MOSUNNY 77 47 34 NW10G21 30.06S Block Island SUNNY 71 58 63 SW16 30.09F Westerly MOSUNNY 75 54 47 W9G20 30.07F IN MA CITY SKY/WX TMP DP RH WIND PRES REMARKS Boston MOSUNNY 77 47 34 W15G22 30.03S Worcester MOSUNNY 71 44 37 W12G21 30.06 Westfield MOSUNNY 77 48 35 W9 30.07S Provincetown SUNNY 74 54 49 SW9 30.06S Nantucket SUNNY 68 59 73 SW18 30.09R $$ ANZ330-335-338-340-345-350-353-355-282100- COASTAL MARINE OBSERVATIONS STATION/POSITION TIME SKY/WX TEMP WIND PRES VSBY WAVE AIR SEA DIR/SP/G HT/PER (UTC) (F) (DEG/KT/KT) (MB) (MI) (FT/S) NY HARB ENTRANCE 1850 71 70 270/ 8/ 10 1019.8 1/10 20 S FIRE ISLAND 1950 69 70 220/ 10/ 12 1019.5 2/ 4 GREAT SOUTH BAY 1915 72 76 220/ 14/ 16 N/A 23 SSW MONTAUK P 1850 67 66 1020.2 2/ 3 15 E BARNEGAT LI 1930 66 N/A 1/11 HUDSON CANYON 1850 68 69 290/ 12/ 14 1020.7 2/ 4 KINGS POINT 1936 74 65 350/ 5/ 12 1018.5 EXECUTION ROCKS 1930 75 310/ 8/ 14 N/A CENTRAL LI SOUND 1915 70 250/ 12/ 14 N/A 2 EASTERN LI SOUND NOT AVBL ROBBINS REEF 1942 290/ 14/ 16 1019.5 $$ >>>>>>>>>>>>>>>>>>>>>>>>>>>> KEY <<<<<<<<<<<<<<<<<<<<<<<<<<< > < > SKY/WX - Sky Condition/Present Weather < > TMP - Temperature in Fahrenheit < > DP - Dew Point in Fahrenheit < > RH - Relative Humidity in Percent < > WIND - Direction (from) and Speed in MPH < > PRES - Mean Sea Level Pressure (inches of Hg) < > WCI - Wind Chill Index < > VSB - VISIBILITY IN MILES < > HX - HEAT INDEX < > TC - TEMPERATURE IN CELSIUS < > VRB - VARIABLE WIND DIRECTION < > < >>>>>>>>>>>>>>>>>>>>>>>>>>>> KEY <<<<<<<<<<<<<<<<<<<<<<<<<<<

USA.gov is the U.S. government's official web portal to all federal, state and local government web resources and services.